Regional Weather Roundup
Issued by NWS

Home | Current Version | Previous Version | Text Only | Print | Product List | Glossary Off
Versions: 1 2 3 4 5 6 7 8 9 10 11 12 13 14 15 16 17 18 19 20 21 22 23 24 25 26 27 28 29 30 31 32 33 34 35 36 37 38 39 40 41 42 43 44 45 46 47 48 49 50

000
ASUS43 KBIS 300120
RWRND

NORTH DAKOTA REGIONAL WEATHER ROUNDUP
NATIONAL WEATHER SERVICE BISMARCK ND
800 PM CDT FRI AUG 29 2014

NOTE: "FAIR" INDICATES FEW OR NO CLOUDS BELOW 12,000 FEET WITH NO
SIGNIFICANT WEATHER AND/OR OBSTRUCTIONS TO VISIBILITY.


NDZ001>003-009>011-017-300200-
NORTHWEST NORTH DAKOTA

CITY           SKY/WX    TMP DP  RH WIND       PRES   REMARKS
WILLISTON      CLEAR     70  48  45 E6        29.96S
MINOT          CLEAR     63  51  65 NE3       29.95S
MINOT AFB      CLEAR     66  51  57 E3        29.95R
$$

NDZ018>021-031>035-040>046-300200-
SOUTHWEST NORTH DAKOTA

CITY           SKY/WX    TMP DP  RH WIND       PRES   REMARKS
BISMARCK       MOCLDY    68  56  65 N7        29.94S
DICKINSON      CLEAR     65  53  65 NE6       29.97S
GARRISON         N/A     65  53  65 NE5       29.96R
HETTINGER ARPT CLEAR     66  53  63 NE8       29.98S
$$

NDZ004>008-012>016-024-026-027-054-300200-
NORTHEAST NORTH DAKOTA

CITY           SKY/WX    TMP DP  RH WIND       PRES   REMARKS
GRAND FORKS    CLOUDY    62  54  74 N15G24    29.85R
GRND FRKS AFB  CLOUDY    61  57  87 N13       29.88R
DEVILS LAKE    PTCLDY    61  52  72 N6        29.92R
$$

NDZ022-023-025-028>030-036>039-047>053-300200-
SOUTHEAST NORTH DAKOTA

CITY           SKY/WX    TMP DP  RH WIND       PRES   REMARKS
FARGO          CLOUDY    67  62  84 N18       29.80R
JAMESTOWN      CLOUDY    62  55  77 N13       29.89R
$$




USA.gov is the U.S. government's official web portal to all federal, state and local government web resources and services.